Regional Weather Roundup
Issued by NWS Albany, NY

Home | Current Version | Previous Version | Graphics & Text | Print | Product List | Glossary On
Versions: 1 2 3 4 5 6 7 8 9 10 11 12 13 14 15 16 17 18 19 20 21 22 23 24 25 26 27 28 29 30 31 32 33 34 35 36 37 38 39 40 41 42 43 44 45 46 47 48 49 50
000
ASUS41 KALY 192210
RWRALY

NEW YORK STATE HOURLY WEATHER ROUNDUP
NATIONAL WEATHER SERVICE ALBANY NY
600 PM EDT TUE AUG 19 2014

NOTE: "FAIR" INDICATES FEW OR NO CLOUDS BELOW 12,000 FEET WITH NO
SIGNIFICANT WEATHER AND/OR NO OBSTRUCTIONS TO VISIBILITY.

NYZ032-033-038>043-046>054-057>066-NYZ062>081-192300-
EAST


CITY           SKY/WX    TMP DP  RH WIND       PRES   REMARKS
ALBANY         MOSUNNY   78  49  35 E3        29.90R
GLENS FALLS    SUNNY     75  47  36 CALM      29.90S
POUGHKEEPSIE   SUNNY     79  55  43 VRB3      29.87S
NEWBURGH       SUNNY     81  55  41 VRB6      29.90S
MONTGOMERY     SUNNY     81  53  37 S6        29.88S
WHITE PLAINS   MOSUNNY   75  59  57 SE9       29.89F
ISLIP          MOSUNNY   74  63  68 SE8       29.89S
NEW YORK CITY  MOSUNNY   77  61  57 S10       29.88S
CENTRAL PARK   SUNNY     76  62  62 MISG      29.91S
$$

NYZ005>009-017-018-044>046-055-056-192300-
CENTRAL


CITY           SKY/WX    TMP DP  RH WIND       PRES   REMARKS
FULTON         MOSUNNY   77  61  57 CALM      29.85F
SYRACUSE       PTSUNNY   78  61  55 NE8       29.85F
ROME           MOSUNNY   76  58  53 E5        29.88F
ELMIRA         MOSUNNY   78  66  66 SW8       29.85S
BINGHAMTON     PTSUNNY   75  60  59 S5        29.90F
MONTICELLO     SUNNY     75  55  50 CALM      29.93S
$$

NYZ026>034-041>043-192300-
NORTH


CITY           SKY/WX    TMP DP  RH WIND       PRES   REMARKS
WATERTOWN      MOSUNNY   77  51  40 NE7       29.86F
FORT DRUM      NOT AVBL
MASSENA        SUNNY     73  55  53 NE7       29.90S
SARANAC LAKE   SUNNY     72  46  39 W3        29.91S
PLATTSBURGH    SUNNY     71  52  50 CALM      29.91S
$$

NYZ001>004-010>016-019>021-192300-
WEST


CITY           SKY/WX    TMP DP  RH WIND       PRES   REMARKS
NIAGARA FALLS  MOSUNNY   79  64  60 NE8       29.83S
BUFFALO        MOSUNNY   79  52  38 VRB5      29.84S
DUNKIRK        SUNNY     76  59  55 N7        29.84S
JAMESTOWN      SUNNY     77  61  57 CALM      29.88R
WELLSVILLE     MOSUNNY   77  61  57 CALM      29.91S
ROCHESTER      MOSUNNY   75  62  64 N8        29.84F
PENN YAN       LGT RAIN  78  66  66 CALM      29.85S
$$

             KEY
       WCI = WIND CHILL INDEX
       VSB = VISIBILITY
       HX  = HEAT INDEX
$$


USA.gov is the U.S. government's official web portal to all federal, state and local government web resources and services.